THOR ABLESTAR DEB, 658

Orbit data source: Space-Track

THOR ABLESTAR DEB, 658 is space debris in LEO originally from a launch on Thu, 29 Jun 1961 UTC launched from the Air Force Eastern Test Range (AFETR). Debris objects in space refer to the collection of defunct objects orbiting the Earth. Examples of debris include non-operational satellites, rocket bodies, and fragments generated from explosions, collisions, or faulty payload assembly.

Loading next visibility...
Identifier
658, 1961-015HK
Orbit
LEO
Last TLE update
3 hours ago
Origin
Manufacturer
Unknown
Mission
Spacecraft
Bus & Motor
Unknown
Mass
Unknown
Launch date (UTC)
1961-06-29 (64 years ago)
Launch vehicle
Unknown
Launch site
Air Force Eastern Test Range (AFETR)
Object type
Payload
Rocket body
Debris
Shape & HBR
Unknown
Radar Cross Section
Small (<0.1 m²)

Expand to show TLE details & history

TLE from 3 hours ago
0 THOR ABLESTAR DEB
1   658U 61015HK  25189.17946350  .00000470  00000-0  68267-3 0  9995
2   658  65.8646 216.8177 0348741  13.4758 347.5311 13.41347129 13950
Epoch: 2025-07-08T04:18Z
TLE epoch observation values (Epoch: 2025-07-08T04:18:25.646Z)
Latitude
-0.0001°
Longitude
-134.16736°
Altitude
851.856 km
Speed
7.552 km/s
True Right ascension
14h 27m 16s
True Declination
0° 00' 00"
Sunlit
Object was in daylight at epoch
Visualization orbit readout
Latitude
-22.98353°
Longitude
56.46011°
Altitude
1,367.096 km
Speed
7.051 km/s
Apparent Right ascension
04h 46m 17s
Apparent Declination
-34° 07' 33"
Sunlit
Object is in daylight
Visualization observer readout
Local Sidereal Time
19:12:24
Azimuth
90.403° ESE
Elevation
-60.478°
Doppler factor
1
Orbital elements
Apogee altitude
1,363.691 km
Perigee altitude
841.91 km
Semi-major axis
7,480.938 km
Eccentricity
0.03487
Inclination
65.8646°
RAAN
216.8177°
Arg. of periapsis
13.4758°
True anomaly
Unknown
Mean anomaly
347.5311°
Eccentric anomaly
Unknown
Mean motion
3.35436 °/min
Orbital period
107.32 mins
BSTAR
0.00068267
Loading maneuver chart data...
Loading SW <> Apogee altitude chart data...

THOR ABLESTAR DEB Visibility forecast

Observer location: undefined°, undefined°

Span
Click to sort rows by Start time (UTC) header in descending order
Start Az.
Max El. time (UTC)
Max El. Az.
Max El.
End time (UTC)
End Az.
6 mins2025-07-08 10:09:54.715Z3.352° NNE2025-07-08 10:12:54.715Z29.262° NE13.48°2025-07-08 10:15:54.715Z54.958° ENE
13 mins2025-07-08 11:59:54.715Z342.79° N2025-07-08 12:05:54.715Z64.175° ENE37.957°2025-07-08 12:12:54.715Z128.419° SE
12 mins2025-07-08 13:50:54.715Z305.6° NW2025-07-08 13:55:54.715Z251.145° W30.537°2025-07-08 14:02:54.715Z188.515° SSW
4 mins2025-07-09 01:55:54.715Z118.648° SE2025-07-09 01:56:54.715Z107.421° ESE13.088°2025-07-09 01:59:54.715Z75.419° E
10 mins2025-07-09 03:42:54.715Z216.952° SW2025-07-09 03:46:54.715Z309.207° NW44.27°2025-07-09 03:52:54.715Z28.072° NE
5 mins2025-07-09 05:36:54.715Z306.294° NW2025-07-09 05:38:54.715Z329.185° NNW15.033°2025-07-09 05:41:54.715Z358.988° N
|